Regional Weather Roundup
Issued by NWS

Home | Current Version | Previous Version | Graphics & Text | Print | Product List | Glossary On
Versions: 1 2 3 4 5 6 7 8 9 10 11 12 13 14 15 16 17 18 19 20 21 22 23 24 25 26 27 28 29 30 31 32 33 34 35 36 37 38 39 40 41 42 43 44 45 46 47 48 49 50
000
ASUS43 KLMK 181410
RWRKY
KENTUCKY REGIONAL WEATHER ROUNDUP
NATIONAL WEATHER SERVICE LOUISVILLE KY
1000 AM EDT SAT APR 18 2015

NOTE "FAIR" INDICATES FEW OR NO CLOUDS BELOW 12,000 FEET
WITH NO SIGNIFICANT WEATHER AND/OR OBSTRUCTIONS TO VISIBILITY.

KYZ001>023-026-027-061>063-070>075-181500-
WESTERN AND SOUTH CENTRAL KENTUCKY

CITY           SKY/WX    TMP DP  RH WIND       PRES   REMARKS
PADUCAH        CLOUDY    64  61  90 CALM      29.99F FOG
HENDERSON      MOSUNNY   64  61  88 NE3       30.00F
OWENSBORO      PTSUNNY   64  61  90 SE6       30.01F FOG
HOPKINSVILLE   PTSUNNY   66  61  86 E6        29.99F
BOWLING GREEN  CLOUDY    63  59  87 NE6       30.01F
GLASGOW        PTSUNNY   62  62  97 E7        30.01F
$$

KYZ024-025-028>034-038-045-046-053-181500-
NORTH CENTRAL KENTUCKY

CITY           SKY/WX    TMP DP  RH WIND       PRES   REMARKS
LOUISVILLE/SDF CLOUDY    64  55  72 S3        30.04S
LOUISVILLE/LOU CLOUDY    65  55  70 CALM      30.04F
FORT KNOX      CLOUDY    63  57  81 E5        30.02F
$$

KYZ035>037-039>044-047>052-055>060-089>105-181500-
NORTHEAST KENTUCKY

CITY           SKY/WX    TMP DP  RH WIND       PRES   REMARKS
LEXINGTON      PTSUNNY   68  50  52 SE6       30.04F
COVINGTON      PTSUNNY   66  48  52 E3        30.07S
FRANKFORT      PTSUNNY   64  53  67 CALM      30.03F
$$

KYZ054-064>069-076>088-106>120-181500-
SOUTHEAST KENTUCKY

CITY           SKY/WX    TMP DP  RH WIND       PRES   REMARKS
JACKSON        MOSUNNY   66  51  58 CALM      30.06F
LONDON         CLOUDY    67  54  63 NE3       30.04F
SOMERSET       PTSUNNY   59  59 100 CALM      30.07R
MIDDLESBORO    CLOUDY    57  56  97 CALM      30.06S
MONTICELLO     CLOUDY    62  62 100 CALM      30.08S
$$




USA.gov is the U.S. government's official web portal to all federal, state and local government web resources and services.